Regional Weather Roundup
Issued by NWS

Home | Current Version | Previous Version | Text Only | Print | Product List | Glossary Off
Versions: 1 2 3 4 5 6 7 8 9 10 11 12 13 14 15 16 17 18 19 20 21 22 23 24 25 26 27 28 29 30 31 32 33 34 35 36 37 38 39 40 41 42 43 44 45 46 47 48 49 50

000
ASUS43 KLOT 260603
RWRIL

ILLINOIS REGIONAL WEATHER ROUNDUP
NATIONAL WEATHER SERVICE CHICAGO/ROMEOVILLE IL
100 AM CDT SUN MAR 26 2017

NOTE: "FAIR" INDICATES FEW OR NO CLOUDS BELOW 12,000 FEET WITH NO
SIGNIFICANT WEATHER AND/OR OBSTRUCTIONS TO VISIBILITY.

* THESE STATIONS ARE NOT UNDER NWS QUALITY CONTROL. THEY ALSO MAY NOT
  REPORT WEATHER SUCH AS PRECIPITATION OR FOG.

ILZ001-002-007-009-015-016-024-260700-
NORTHWEST ILLINOIS

CITY           SKY/WX    TMP DP  RH WIND       PRES   REMARKS
MOLINE         CLOUDY    47  45  93 E8        29.84F FOG
6HR MIN TEMP:  47; 6HR MAX TEMP:  50; 6HR PCP:  0.01;

STERLING*      CLOUDY    47  46  97 E12       29.87F FOG
SAVANNA*       CLOUDY    44  43  97 NE7       29.89F FOG
$$

ILZ003-004-008-010-011-017-018-260700-
NORTH CENTRAL ILLINOIS

CITY           SKY/WX    TMP DP  RH WIND       PRES   REMARKS
ROCKFORD       CLOUDY    46  44  93 E8        29.92F FOG
6HR MIN TEMP:  43; 6HR MAX TEMP:  46; 6HR PCP:  0.01;

FREEPORT*      CLOUDY    42  42  99 E10       29.92F FOG
ROCHELLE*      CLOUDY    47  47  99 E12       29.89F FOG
DE KALB*       CLOUDY    46  46  98 E12       29.91F FOG
PERU*          CLOUDY    49  48  97 E9        29.87F FOG
$$

ILZ005-006-012>014-019>023-260700-
NORTHEAST ILLINOIS

CITY           SKY/WX    TMP DP  RH WIND       PRES   REMARKS
CHICAGO-OHARE  CLOUDY    47  44  90 NE8       29.92F FOG
6HR MIN TEMP:  43; 6HR MAX TEMP:  47; 6HR PCP:  0.07;

CHICAGO-MIDWAY LGT RAIN  49  47  93 VRB7      29.92F FOG
6HR MIN TEMP:  45; 6HR MAX TEMP:  49; 6HR PCP:  0.03;

AURORA         CLOUDY    50  48  93 NE10      29.90F FOG
6HR MIN TEMP:  45; 6HR MAX TEMP:  50; 6HR PCP:  0.05;

LANSING*       CLOUDY    51  51 100 SE10      29.92F
JOLIET*        CLOUDY    53  53  98 E7        29.90F FOG
WAUKEGAN       LGT RAIN  40  40 100 NE8       29.95F FOG
6HR MIN TEMP:  40; 6HR MAX TEMP:  41; 6HR PCP:  0.03;

DUPAGE AIRPORT CLOUDY    47  47 100 NE6       29.91F FOG
6HR MIN TEMP:  44; 6HR MAX TEMP:  47; 6HR PCP:  0.02;

WHEELING       CLOUDY    43  43 100 NE7       29.95F FOG
6HR MIN TEMP:  41; 6HR MAX TEMP:  43; 6HR PCP:  0.06;

MORRIS*        CLOUDY    53  52  96 E8        29.88F FOG
$$

LMZ740>746-260700-
SOUTHERN LAKE MICHIGAN

STATION/POSITION SKY/WX   TEMP    WIND        PRES    VSBY  WAVE
                          AIR SEA DIR/SP/G                  HT/PER
                          (F)     (DEG/KT/KT) (MB)    (MI)  (FT/S)
HARRISON CRIB              44     100/  7/  7   N/A
BURNHAM HARBOR             43      30/  5/  7   N/A
CALUMET HARBOR             45      80/  6/  8 1013.1F
BURNS HARBOR               51     120/ 14/ 20 1013.9F
MICHIGAN CITY              49     110/ 10/ 12   N/A
$$

ILZ025>027-034>036-040-047-049-050-058-095>099-260700-
WEST-CENTRAL ILLINOIS

CITY           SKY/WX    TMP DP  RH WIND       PRES   REMARKS
QUINCY         MOCLDY    56  54  93 S10       29.78F
GALESBURG*     CLOUDY    57  57  98 E7        29.81F
MACOMB*        CLOUDY    56  56  99 SE8       29.82F
JACKSONVILLE*  MOCLDY    54  51  91 S7        29.82S
PITTSFIELD*    CLOUDY    55  54  96 S7        29.81F
$$

ILZ028>032-037-038-041>044-048-051>054-059>061-260700-
CENTRAL ILLINOIS

CITY           SKY/WX    TMP DP  RH WIND       PRES   REMARKS
PONTIAC        CLOUDY    57  56  98 E10       29.87F
BLOOMINGTON    CLOUDY    57  54  89 SE10      29.86F
DECATUR        LGT RAIN  58  54  86 S10       29.85F
PEORIA         CLOUDY    59  56  89 SE8       29.83F
6HR MIN TEMP:  58; 6HR MAX TEMP:  59; 6HR PCP:  0.02;

SPRINGFIELD    CLOUDY    58  55  90 S9        29.83F
6HR MIN TEMP:  58; 6HR MAX TEMP:  61; 6HR PCP:  0.01;

TAYLORVILLE    NOT AVBL
$$

ILZ033-039-045-046-055>057-062-063-260700-
EAST-CENTRAL ILLINOIS

CITY           SKY/WX    TMP DP  RH WIND       PRES   REMARKS
CHAMPAIGN      CLOUDY    55  51  86 SE7       29.87F
RANTOUL*       CLOUDY    58  55  91 SE9       29.88S
MATTOON        CLOUDY    59  54  83 S10       29.86F
PARIS*         LGT RAIN  58  57  97 SE12      29.91S
$$

ILZ079-100>102-260700-
SOUTHWEST ILLINOIS

CITY           SKY/WX    TMP DP  RH WIND       PRES   REMARKS
CAHOKIA*       CLOUDY    56  50  80 SW7       29.86S
SPARTA*        CLOUDY    56  54  93 S5        29.88S
$$

ILZ064>066-069>071-074>076-080>082-084>086-088>090-092>094-260700-
SOUTH-CENTRAL ILLINOIS

CITY           SKY/WX    TMP DP  RH WIND       PRES   REMARKS
CARBONDALE     CLOUDY    56  56 100 S9        29.88F
6HR MIN TEMP:  56; 6HR MAX TEMP:  64; 6HR PCP:  0.03;

CAIRO*         CLOUDY    57  55  92 S6        29.90S
EFFINGHAM*     CLOUDY    60  56  88 SE7       29.88F
MARION         CLOUDY    59  57  94 S6        29.89F
CENTRALIA*     CLOUDY    57  56  97 CALM      29.86F
SALEM*         MOCLDY    60  56  88 S8        29.87F
$$

ILZ067-068-072-073-078-083-087-091-260700-
SOUTHEAST ILLINOIS

CITY           SKY/WX    TMP DP  RH WIND       PRES   REMARKS
LAWRENCEVILLE  LGT RAIN  60  59  96 SE14      29.91F
FLORA*         CLOUDY    58  55  88 S8        29.89S
FAIRFIELD*     CLOUDY    58  55  89 S5        29.88S
HARRISBURG*    CLOUDY    57  56  95 S7        29.91S
ROBINSON*      CLOUDY    59  56  92 S7        29.91S
CARMI*         CLOUDY    60  55  82 S10       29.90S
$$

ABBREVIATIONS USED IN REMARKS
   TC - TEMPERATURE IN CELSIUS
  WCI - WIND CHILL INDEX
   HX - HEAT INDEX
  VSB - VISIBILITY
$$





USA.gov is the U.S. government's official web portal to all federal, state and local government web resources and services.